Location: Unspecified
(0.0000°N, 0.0000°E)
Time: 16:53:06
(UTC+02:00)

NOAA 12 - Visible Passes

Search period start: 27 August 2014 00:00
Search period end: 06 September 2014 00:00
Orbit: 796 x 816 km, 98.7° (Epoch: 27 August)

Date Brightness Start Highest point End Pass type
(mag) Time Alt. Az. Time Alt. Az. Time Alt. Az.
27 Aug 4.3 20:50:17 10° SSE 20:55:17 45° ENE 21:00:14 10° N visible
27 Aug 7.0 22:33:51 10° WSW 22:34:46 10° WSW 22:35:41 10° W visible
28 Aug 5.2 20:26:28 10° SE 20:30:32 23° ENE 20:34:34 10° NNE visible
28 Aug 6.3 22:06:05 10° SSW 22:10:03 22° WSW 22:14:00 10° NW visible
29 Aug 5.1 21:40:22 10° S 21:45:19 43° WSW 21:50:14 10° NNW visible
30 Aug 4.0 21:15:19 10° SSE 21:20:34 88° WSW 21:25:46 10° NNW visible
31 Aug 4.3 20:50:48 10° SSE 20:55:48 46° ENE 21:00:46 10° N visible
31 Aug 7.1 22:34:38 10° WSW 22:35:17 10° WSW 22:35:57 10° W visible
01 Sep 5.2 20:26:58 10° SE 20:31:03 23° ENE 20:35:06 10° NNE visible
01 Sep 6.3 22:06:39 10° SSW 22:10:34 22° WSW 22:14:29 10° NW visible
02 Sep 5.2 21:40:54 10° S 21:45:50 43° WSW 21:50:44 10° NNW visible
03 Sep 4.0 21:15:50 10° SSE 21:21:05 87° WSW 21:26:17 10° NNW visible
04 Sep 4.3 20:51:19 10° SSE 20:56:19 47° ENE 21:01:17 10° N visible
04 Sep 7.1 22:35:35 10° WSW 22:35:48 10° WSW 22:36:02 10° W visible
05 Sep 5.1 20:27:28 10° SE 20:31:34 24° ENE 20:35:39 10° NNE visible
05 Sep 6.3 22:07:12 10° SSW 22:11:05 21° WSW 22:14:58 10° NW visible
